QPF
0.01 0.05 0.14 0.22 0.19 0.16 0.11 0.03 0.01 0.01 0.01 0.01 0.01 0.01 0.01 0.01 0.01 0.04 0.10 0.10 0.05 0.03 0.03 0.05 0.06 0.07 0.10 0.10 0.07 0.07 0.09 0.16 0.07 0.04 0.03 0.02 0.02 0.02 0.02 0.02 0.01 0.01 0.00 0.01 0.02 0.02 0.01 0.02 0.02
0.03 0.10 0.16 0.22 0.15 0.16 0.08 0.02 0.01 0.01 0.00 0.00 0.00 0.01 0.00 0.01 0.01 0.04 0.07 0.06 0.03 0.03 0.02 0.03 0.04 0.05 0.06 0.05 0.05 0.08 0.12 0.12 0.05 0.03 0.02 0.02 0.01 0.01 0.01 0.01 0.01 0.01 0.01 0.01 0.02 0.01 0.02 0.02 0.01
0.10 0.13 0.22 0.21 0.12 0.08 0.05 0.02 0.01 0.00 0.00 0.00 0.00 0.00 0.01 0.01 0.02 0.04 0.04 0.02 0.02 0.02 0.01 0.02 0.02 0.02 0.02 0.02 0.03 0.06 0.09 0.07 0.05 0.03 0.02 0.01 0.01 0.01 0.01 0.01 0.01 0.01 0.01 0.02 0.01 0.02 0.02 0.02 0.01
0.16 0.22 0.23 0.17 0.08 0.04 0.02 0.02 0.01 0.00 0.00 0.01 0.00 0.01 0.02 0.01 0.02 0.02 0.02 0.01 0.01 0.00 0.01 0.01 0.01 0.02 0.02 0.02 0.01 0.02 0.03 0.03 0.03 0.03 0.02 0.02 0.02 0.01 0.02 0.01 0.01 0.02 0.01 0.01 0.01 0.02 0.01 0.02 0.01
0.13 0.16 0.18 0.10 0.04 0.04 0.03 0.02 0.01 0.00 0.00 0.00 0.00 0.04 0.03 0.02 0.01 0.01 0.01 0.01 0.01 0.01 0.00 0.00 0.01 0.01 0.02 0.01 0.01 0.01 0.01 0.02 0.02 0.02 0.01 0.01 0.02 0.02 0.02 0.02 0.01 0.02 0.02 0.01 0.01 0.01 0.01 0.01 0.01
0.19 0.16 0.13 0.06 0.02 0.03 0.03 0.01 0.00 0.00 0.00 0.00 0.00 0.04 0.04 0.02 0.01 0.01 0.01 0.01 0.01 0.01 0.01 0.00 0.00 0.01 0.02 0.02 0.01 0.01 0.01 0.01 0.02 0.01 0.01 0.01 0.01 0.02 0.02 0.02 0.02 0.03 0.02 0.02 0.02 0.01 0.01 0.01 0.01
0.16 0.17 0.09 0.04 0.03 0.01 0.01 0.01 0.00 0.01 0.01 0.00 0.00 0.01 0.02 0.02 0.01 0.01 0.02 0.01 0.01 0.01 0.01 0.01 0.00 0.01 0.02 0.02 0.02 0.03 0.02 0.01 0.01 0.01 0.01 0.02 0.02 0.01 0.02 0.02 0.02 0.02 0.02 0.02 0.02 0.01 0.02 0.02 0.02
0.08 0.11 0.07 0.05 0.03 0.01 0.01 0.00 0.00 0.00 0.00 0.00 0.00 0.00 0.02 0.02 0.01 0.01 0.02 0.02 0.01 0.01 0.02 0.02 0.01 0.00 0.00 0.01 0.02 0.02 0.01 0.02 0.01 0.01 0.02 0.03 0.02 0.02 0.02 0.02 0.02 0.02 0.02 0.04 0.04 0.03 0.03 0.02 0.03
0.05 0.08 0.11 0.08 0.02 0.01 0.01 0.00 0.00 0.00 0.00 0.00 0.00 0.00 0.00 0.01 0.01 0.01 0.02 0.02 0.03 0.03 0.04 0.05 0.02 0.01 0.01 0.01 0.02 0.03 0.03 0.04 0.03 0.03 0.04 0.03 0.01 0.01 0.01 0.01 0.02 0.03 0.04 0.05 0.06 0.05 0.05 0.04 0.04
0.05 0.09 0.10 0.07 0.01 0.00 0.00 0.00 0.00 0.00 0.00 0.00 0.00 0.00 0.00 0.00 0.00 0.01 0.02 0.02 0.02 0.03 0.03 0.04 0.02 0.02 0.03 0.02 0.02 0.02 0.02 0.03 0.04 0.04 0.05 0.04 0.02 0.02 0.01 0.02 0.05 0.05 0.05 0.05 0.07 0.08 0.08 0.08 0.04
0.05 0.09 0.06 0.04 0.01 0.01 0.00 0.00 0.00 0.00 0.00 0.00 0.00 0.00 0.00 0.00 0.01 0.01 0.02 0.02 0.02 0.01 0.01 0.01 0.03 0.04 0.04 0.03 0.02 0.02 0.02 0.03 0.03 0.04 0.05 0.04 0.03 0.02 0.03 0.03 0.04 0.04 0.03 0.02 0.04 0.05 0.08 0.16 0.07
0.02 0.02 0.02 0.01 0.01 0.00 0.00 0.00 0.01 0.01 0.00 0.00 0.00 0.00 0.00 0.01 0.02 0.02 0.02 0.04 0.06 0.01 0.01 0.01 0.01 0.02 0.04 0.04 0.03 0.01 0.01 0.02 0.02 0.03 0.04 0.04 0.03 0.03 0.03 0.04 0.05 0.04 0.04 0.03 0.03 0.04 0.05 0.07 0.06
0.01 0.02 0.01 0.00 0.00 0.00 0.00 0.00 0.01 0.02 0.01 0.00 0.00 0.01 0.01 0.01 0.01 0.01 0.03 0.06 0.13 0.06 0.02 0.01 0.01 0.02 0.03 0.04 0.03 0.02 0.02 0.01 0.01 0.02 0.02 0.03 0.03 0.04 0.04 0.05 0.07 0.08 0.05 0.04 0.05 0.04 0.04 0.04 0.05
0.01 0.01 0.00 0.00 0.00 0.00 0.00 0.00 0.01 0.02 0.01 0.01 0.01 0.02 0.01 0.01 0.01 0.01 0.04 0.10 0.14 0.08 0.04 0.01 0.01 0.01 0.02 0.03 0.03 0.02 0.02 0.02 0.02 0.01 0.02 0.02 0.03 0.02 0.04 0.04 0.05 0.06 0.05 0.03 0.03 0.04 0.04 0.04 0.08
0.00 0.00 0.00 0.00 0.00 0.01 0.00 0.01 0.01 0.01 0.01 0.01 0.02 0.02 0.01 0.01 0.01 0.02 0.04 0.07 0.08 0.06 0.04 0.02 0.01 0.01 0.01 0.03 0.04 0.03 0.03 0.03 0.03 0.02 0.03 0.02 0.02 0.02 0.03 0.03 0.03 0.04 0.05 0.05 0.04 0.05 0.07 0.06 0.05
0.01 0.01 0.01 0.00 0.00 0.01 0.01 0.01 0.01 0.01 0.01 0.01 0.01 0.02 0.02 0.01 0.03 0.04 0.03 0.02 0.03 0.04 0.03 0.01 0.00 0.01 0.02 0.03 0.04 0.03 0.03 0.04 0.03 0.02 0.04 0.03 0.03 0.03 0.03 0.03 0.03 0.03 0.06 0.08 0.07 0.05 0.06 0.06 0.04
0.01 0.01 0.01 0.00 0.00 0.00 0.00 0.01 0.01 0.01 0.02 0.01 0.00 0.01 0.01 0.04 0.04 0.04 0.03 0.02 0.03 0.03 0.03 0.01 0.01 0.01 0.01 0.02 0.03 0.03 0.04 0.05 0.05 0.04 0.05 0.03 0.03 0.04 0.04 0.03 0.03 0.04 0.06 0.09 0.07 0.05 0.04 0.04 0.05
0.01 0.01 0.01 0.01 0.00 0.00 0.01 0.01 0.01 0.02 0.03 0.04 0.02 0.01 0.01 0.06 0.06 0.07 0.12 0.06 0.06 0.07 0.04 0.03 0.01 0.01 0.01 0.02 0.04 0.06 0.05 0.06 0.07 0.06 0.06 0.04 0.04 0.03 0.04 0.03 0.03 0.03 0.03 0.04 0.05 0.05 0.05 0.04 0.04
0.01 0.01 0.01 0.01 0.01 0.00 0.01 0.02 0.04 0.06 0.06 0.04 0.02 0.03 0.03 0.06 0.07 0.04 0.06 0.05 0.06 0.06 0.06 0.05 0.03 0.03 0.04 0.04 0.05 0.05 0.04 0.05 0.06 0.05 0.04 0.04 0.03 0.02 0.03 0.02 0.02 0.02 0.02 0.03 0.04 0.06 0.07 0.05 0.04
0.01 0.01 0.01 0.01 0.01 0.01 0.01 0.01 0.05 0.05 0.04 0.04 0.03 0.03 0.04 0.07 0.10 0.06 0.04 0.05 0.06 0.06 0.05 0.05 0.06 0.07 0.04 0.04 0.04 0.04 0.05 0.05 0.05 0.05 0.05 0.04 0.03 0.03 0.03 0.03 0.02 0.02 0.02 0.02 0.03 0.05 0.08 0.09 0.08
0.01 0.01 0.01 0.01 0.01 0.01 0.01 0.02 0.04 0.04 0.05 0.05 0.04 0.04 0.04 0.05 0.08 0.09 0.07 0.06 0.06 0.06 0.05 0.05 0.06 0.06 0.05 0.05 0.06 0.05 0.06 0.07 0.08 0.06 0.05 0.04 0.04 0.04 0.04 0.06 0.05 0.04 0.03 0.05 0.04 0.05 0.05 0.08 0.11
0.01 0.01 0.01 0.01 0.01 0.01 0.01 0.02 0.02 0.03 0.05 0.06 0.04 0.04 0.03 0.05 0.08 0.09 0.06 0.05 0.07 0.06 0.07 0.08 0.06 0.04 0.04 0.06 0.06 0.06 0.07 0.06 0.05 0.04 0.03 0.04 0.05 0.05 0.05 0.07 0.05 0.04 0.05 0.07 0.05 0.05 0.05 0.05 0.08
0.01 0.01 0.01 0.01 0.01 0.02 0.01 0.02 0.03 0.04 0.06 0.07 0.05 0.04 0.04 0.07 0.08 0.06 0.07 0.07 0.07 0.07 0.08 0.10 0.08 0.03 0.05 0.06 0.08 0.07 0.06 0.04 0.03 0.03 0.03 0.03 0.03 0.02 0.03 0.05 0.05 0.04 0.04 0.04 0.04 0.04 0.03 0.03 0.05
0.01 0.01 0.01 0.01 0.02 0.02 0.04 0.07 0.06 0.08 0.09 0.08 0.06 0.05 0.04 0.03 0.03 0.03 0.03 0.06 0.09 0.09 0.10 0.11 0.09 0.06 0.06 0.07 0.07 0.08 0.06 0.04 0.04 0.04 0.04 0.03 0.03 0.03 0.02 0.02 0.03 0.04 0.03 0.02 0.03 0.03 0.02 0.02 0.04
0.00 0.01 0.01 0.02 0.03 0.03 0.03 0.05 0.04 0.05 0.06 0.08 0.07 0.05 0.03 0.04 0.03 0.03 0.03 0.04 0.05 0.06 0.09 0.08 0.06 0.07 0.07 0.07 0.09 0.10 0.10 0.08 0.05 0.04 0.03 0.03 0.03 0.04 0.03 0.03 0.04 0.04 0.05 0.06 0.07 0.09 0.08 0.05 0.05
0.01 0.01 0.02 0.03 0.04 0.03 0.03 0.02 0.03 0.03 0.02 0.03 0.03 0.03 0.02 0.08 0.08 0.03 0.04 0.07 0.03 0.04 0.05 0.05 0.05 0.06 0.06 0.05 0.04 0.04 0.04 0.06 0.06 0.04 0.03 0.02 0.02 0.03 0.03 0.03 0.03 0.02 0.02 0.03 0.05 0.05 0.05 0.05 0.04
0.01 0.01 0.02 0.04 0.05 0.04 0.03 0.04 0.03 0.02 0.01 0.02 0.02 0.03 0.03 0.05 0.06 0.04 0.03 0.03 0.03 0.03 0.03 0.04 0.04 0.04 0.04 0.04 0.03 0.02 0.02 0.02 0.01 0.02 0.02 0.02 0.02 0.02 0.03 0.03 0.02 0.02 0.02 0.01 0.02 0.02 0.01 0.02 0.02
0.01 0.01 0.02 0.03 0.03 0.03 0.03 0.05 0.04 0.03 0.01 0.01 0.02 0.03 0.04 0.05 0.04 0.03 0.03 0.03 0.03 0.03 0.03 0.02 0.02 0.01 0.01 0.02 0.03 0.02 0.02 0.02 0.01 0.01 0.01 0.01 0.02 0.03 0.02 0.01 0.01 0.02 0.02 0.02 0.02 0.01 0.01 0.01 0.01
0.01 0.01 0.02 0.02 0.02 0.02 0.02 0.03 0.02 0.02 0.02 0.02 0.03 0.03 0.04 0.06 0.04 0.03 0.03 0.02 0.02 0.02 0.02 0.01 0.01 0.01 0.01 0.02 0.02 0.03 0.03 0.02 0.02 0.02 0.01 0.01 0.01 0.02 0.02 0.02 0.02 0.03 0.03 0.04 0.04 0.03 0.02 0.01 0.01
0.01 0.01 0.01 0.01 0.01 0.03 0.02 0.01 0.01 0.02 0.02 0.02 0.04 0.06 0.06 0.06 0.05 0.05 0.03 0.02 0.02 0.02 0.01 0.01 0.01 0.01 0.02 0.02 0.02 0.03 0.03 0.03 0.03 0.04 0.04 0.02 0.02 0.01 0.02 0.02 0.02 0.03 0.03 0.04 0.04 0.03 0.02 0.03 0.02
MSLP
1008.38 1009.18 1010.19 1011.22 1012.12 1012.74 1013.03 1012.97 1012.66 1012.23 1011.84 1011.65 1011.71 1012.06 1012.61 1013.26 1013.85 1014.26 1014.41 1014.28 1013.92 1013.43 1012.91 1012.47 1012.19 1012.08 1012.12 1012.26 1012.43 1012.59 1012.72 1012.81 1012.90 1013.01 1013.18 1013.43 1013.73 1014.07 1014.39 1014.67 1014.89 1015.03 1015.10 1015.14 1015.17 1015.21 1015.27 1015.35 1015.43
1008.69 1009.64 1010.71 1011.72 1012.53 1013.02 1013.16 1012.96 1012.54 1012.04 1011.63 1011.43 1011.51 1011.87 1012.43 1013.07 1013.66 1014.06 1014.22 1014.12 1013.81 1013.39 1012.97 1012.62 1012.43 1012.39 1012.49 1012.67 1012.88 1013.06 1013.21 1013.31 1013.39 1013.49 1013.62 1013.81 1014.04 1014.28 1014.53 1014.74 1014.89 1015.00 1015.07 1015.12 1015.17 1015.23 1015.30 1015.37 1015.42
1009.12 1010.17 1011.24 1012.18 1012.86 1013.20 1013.19 1012.88 1012.39 1011.87 1011.48 1011.31 1011.43 1011.80 1012.35 1012.96 1013.51 1013.87 1014.01 1013.92 1013.67 1013.33 1013.00 1012.76 1012.66 1012.71 1012.87 1013.10 1013.33 1013.53 1013.67 1013.77 1013.83 1013.90 1013.99 1014.11 1014.26 1014.43 1014.59 1014.73 1014.85 1014.93 1015.00 1015.07 1015.14 1015.22 1015.31 1015.38 1015.42
1009.60 1010.69 1011.71 1012.54 1013.08 1013.26 1013.13 1012.75 1012.25 1011.77 1011.44 1011.35 1011.51 1011.91 1012.44 1013.00 1013.47 1013.77 1013.87 1013.78 1013.57 1013.30 1013.07 1012.93 1012.93 1013.05 1013.26 1013.51 1013.74 1013.94 1014.07 1014.14 1014.19 1014.23 1014.28 1014.35 1014.44 1014.54 1014.64 1014.73 1014.81 1014.88 1014.95 1015.03 1015.13 1015.23 1015.32 1015.39 1015.42
1010.06 1011.13 1012.06 1012.75 1013.13 1013.20 1012.98 1012.59 1012.14 1011.75 1011.54 1011.55 1011.78 1012.19 1012.69 1013.18 1013.57 1013.79 1013.84 1013.73 1013.55 1013.35 1013.20 1013.16 1013.24 1013.41 1013.64 1013.88 1014.10 1014.26 1014.36 1014.41 1014.44 1014.46 1014.49 1014.54 1014.60 1014.67 1014.73 1014.78 1014.82 1014.87 1014.94 1015.03 1015.14 1015.24 1015.34 1015.39 1015.40
1010.41 1011.41 1012.21 1012.76 1013.01 1012.98 1012.75 1012.40 1012.05 1011.81 1011.74 1011.87 1012.18 1012.61 1013.07 1013.47 1013.76 1013.90 1013.89 1013.77 1013.61 1013.46 1013.40 1013.42 1013.55 1013.74 1013.97 1014.18 1014.35 1014.46 1014.53 1014.56 1014.58 1014.60 1014.64 1014.70 1014.76 1014.81 1014.85 1014.88 1014.90 1014.92 1014.97 1015.05 1015.14 1015.24 1015.32 1015.36 1015.34
1010.59 1011.48 1012.14 1012.55 1012.70 1012.63 1012.42 1012.16 1011.96 1011.89 1011.98 1012.23 1012.61 1013.04 1013.45 1013.78 1013.97 1014.02 1013.96 1013.83 1013.70 1013.61 1013.59 1013.67 1013.82 1014.01 1014.20 1014.36 1014.47 1014.53 1014.56 1014.57 1014.60 1014.65 1014.73 1014.82 1014.90 1014.96 1015.00 1015.00 1014.99 1014.99 1015.00 1015.04 1015.11 1015.18 1015.23 1015.24 1015.20
1010.59 1011.34 1011.87 1012.16 1012.24 1012.16 1012.02 1011.89 1011.85 1011.94 1012.18 1012.55 1012.97 1013.40 1013.76 1014.00 1014.11 1014.09 1013.99 1013.86 1013.75 1013.71 1013.75 1013.86 1014.02 1014.18 1014.33 1014.43 1014.47 1014.48 1014.48 1014.49 1014.54 1014.63 1014.75 1014.89 1015.00 1015.08 1015.12 1015.10 1015.06 1015.00 1014.97 1014.96 1014.98 1015.02 1015.04 1015.02 1014.95
1010.42 1011.05 1011.46 1011.66 1011.70 1011.66 1011.60 1011.60 1011.70 1011.95 1012.31 1012.75 1013.19 1013.59 1013.89 1014.06 1014.09 1014.03 1013.91 1013.80 1013.72 1013.73 1013.80 1013.94 1014.10 1014.24 1014.33 1014.37 1014.37 1014.34 1014.31 1014.33 1014.41 1014.54 1014.71 1014.89 1015.03 1015.13 1015.15 1015.11 1015.03 1014.92 1014.84 1014.77 1014.75 1014.74 1014.73 1014.69 1014.60
1010.16 1010.69 1011.01 1011.16 1011.20 1011.20 1011.22 1011.33 1011.56 1011.90 1012.33 1012.79 1013.23 1013.58 1013.81 1013.92 1013.91 1013.82 1013.70 1013.61 1013.59 1013.63 1013.75 1013.90 1014.06 1014.17 1014.23 1014.23 1014.19 1014.13 1014.10 1014.13 1014.22 1014.39 1014.59 1014.80 1014.97 1015.06 1015.07 1015.00 1014.88 1014.73 1014.59 1014.48 1014.41 1014.36 1014.33 1014.28 1014.18
1009.91 1010.37 1010.64 1010.78 1010.83 1010.88 1010.97 1011.16 1011.45 1011.83 1012.27 1012.70 1013.09 1013.38 1013.55 1013.60 1013.56 1013.47 1013.38 1013.33 1013.34 1013.43 1013.58 1013.75 1013.91 1014.01 1014.05 1014.03 1013.97 1013.91 1013.88 1013.91 1014.02 1014.20 1014.42 1014.63 1014.79 1014.88 1014.87 1014.78 1014.62 1014.43 1014.26 1014.11 1014.01 1013.95 1013.91 1013.85 1013.76
1009.78 1010.21 1010.47 1010.61 1010.69 1010.77 1010.91 1011.12 1011.41 1011.77 1012.16 1012.52 1012.82 1013.03 1013.14 1013.16 1013.10 1013.03 1012.97 1012.96 1013.03 1013.15 1013.32 1013.50 1013.66 1013.77 1013.81 1013.80 1013.75 1013.69 1013.67 1013.71 1013.82 1013.99 1014.19 1014.38 1014.53 1014.60 1014.57 1014.46 1014.29 1014.10 1013.91 1013.75 1013.65 1013.58 1013.53 1013.48 1013.39
1009.85 1010.28 1010.55 1010.71 1010.82 1010.92 1011.06 1011.25 1011.50 1011.77 1012.05 1012.30 1012.50 1012.62 1012.67 1012.66 1012.61 1012.56 1012.54 1012.58 1012.67 1012.82 1013.00 1013.19 1013.36 1013.48 1013.55 1013.56 1013.53 1013.50 1013.49 1013.53 1013.62 1013.76 1013.93 1014.08 1014.19 1014.24 1014.21 1014.11 1013.95 1013.78 1013.60 1013.47 1013.37 1013.31 1013.26 1013.21 1013.13
1010.14 1010.59 1010.89 1011.07 1011.20 1011.31 1011.43 1011.56 1011.70 1011.85 1011.99 1012.10 1012.17 1012.21 1012.20 1012.18 1012.15 1012.13 1012.14 1012.20 1012.31 1012.46 1012.65 1012.83 1013.01 1013.15 1013.25 1013.31 1013.33 1013.33 1013.34 1013.37 1013.43 1013.52 1013.63 1013.74 1013.82 1013.86 1013.84 1013.77 1013.66 1013.53 1013.41 1013.30 1013.23 1013.17 1013.13 1013.08 1012.99
1010.61 1011.07 1011.39 1011.61 1011.76 1011.87 1011.94 1011.99 1012.01 1012.01 1011.99 1011.95 1011.89 1011.84 1011.79 1011.76 1011.74 1011.76 1011.80 1011.87 1011.97 1012.11 1012.27 1012.45 1012.62 1012.79 1012.93 1013.04 1013.12 1013.16 1013.19 1013.21 1013.23 1013.27 1013.32 1013.38 1013.43 1013.47 1013.49 1013.48 1013.44 1013.39 1013.33 1013.27 1013.22 1013.18 1013.13 1013.06 1012.96
1011.14 1011.60 1011.95 1012.20 1012.38 1012.49 1012.52 1012.49 1012.38 1012.23 1012.04 1011.84 1011.67 1011.53 1011.44 1011.40 1011.41 1011.45 1011.50 1011.57 1011.66 1011.76 1011.88 1012.03 1012.21 1012.39 1012.58 1012.75 1012.88 1012.97 1013.02 1013.03 1013.02 1013.00 1012.99 1013.00 1013.04 1013.09 1013.16 1013.23 1013.28 1013.32 1013.34 1013.33 1013.31 1013.27 1013.20 1013.11 1012.98
1011.59 1012.05 1012.41 1012.71 1012.93 1013.06 1013.07 1012.97 1012.75 1012.45 1012.11 1011.77 1011.47 1011.26 1011.14 1011.10 1011.12 1011.18 1011.24 1011.30 1011.35 1011.41 1011.48 1011.60 1011.76 1011.96 1012.19 1012.42 1012.61 1012.75 1012.82 1012.82 1012.77 1012.70 1012.64 1012.61 1012.63 1012.71 1012.84 1012.99 1013.14 1013.28 1013.37 1013.42 1013.42 1013.38 1013.30 1013.18 1013.03
1011.84 1012.27 1012.67 1013.03 1013.33 1013.50 1013.53 1013.39 1013.08 1012.65 1012.16 1011.69 1011.28 1011.00 1010.84 1010.79 1010.83 1010.90 1010.98 1011.02 1011.04 1011.05 1011.07 1011.15 1011.29 1011.51 1011.77 1012.05 1012.30 1012.49 1012.58 1012.58 1012.50 1012.38 1012.26 1012.20 1012.21 1012.31 1012.50 1012.73 1012.98 1013.21 1013.38 1013.48 1013.50 1013.45 1013.35 1013.21 1013.05
1011.78 1012.20 1012.66 1013.12 1013.52 1013.79 1013.86 1013.71 1013.34 1012.80 1012.18 1011.57 1011.06 1010.69 1010.49 1010.44 1010.49 1010.59 1010.67 1010.70 1010.69 1010.66 1010.64 1010.68 1010.80 1011.02 1011.32 1011.65 1011.95 1012.18 1012.30 1012.30 1012.20 1012.04 1011.88 1011.78 1011.78 1011.89 1012.12 1012.42 1012.75 1013.06 1013.29 1013.44 1013.48 1013.44 1013.33 1013.19 1013.03
1011.43 1011.86 1012.41 1013.00 1013.55 1013.93 1014.08 1013.93 1013.51 1012.88 1012.13 1011.39 1010.76 1010.31 1010.06 1010.00 1010.07 1010.18 1010.28 1010.32 1010.30 1010.23 1010.18 1010.18 1010.29 1010.51 1010.83 1011.20 1011.56 1011.83 1011.99 1011.99 1011.88 1011.69 1011.50 1011.36 1011.34 1011.45 1011.70 1012.05 1012.44 1012.81 1013.10 1013.29 1013.36 1013.34 1013.24 1013.11 1012.99
1010.85 1011.34 1012.01 1012.77 1013.48 1014.00 1014.23 1014.10 1013.63 1012.88 1012.00 1011.12 1010.36 1009.82 1009.52 1009.44 1009.52 1009.67 1009.79 1009.85 1009.83 1009.75 1009.67 1009.64 1009.74 1009.96 1010.30 1010.70 1011.10 1011.43 1011.63 1011.66 1011.55 1011.35 1011.13 1010.96 1010.91 1011.01 1011.26 1011.62 1012.05 1012.46 1012.80 1013.04 1013.15 1013.16 1013.11 1013.02 1012.94
1010.22 1010.79 1011.62 1012.55 1013.43 1014.08 1014.37 1014.24 1013.70 1012.83 1011.80 1010.76 1009.87 1009.22 1008.86 1008.77 1008.86 1009.04 1009.20 1009.29 1009.28 1009.20 1009.10 1009.05 1009.12 1009.34 1009.69 1010.13 1010.58 1010.96 1011.21 1011.30 1011.22 1011.02 1010.79 1010.59 1010.51 1010.58 1010.81 1011.18 1011.61 1012.05 1012.44 1012.72 1012.89 1012.96 1012.96 1012.92 1012.90
1009.70 1010.40 1011.38 1012.48 1013.50 1014.24 1014.56 1014.38 1013.74 1012.73 1011.53 1010.33 1009.29 1008.54 1008.12 1008.00 1008.11 1008.32 1008.52 1008.64 1008.65 1008.57 1008.45 1008.38 1008.42 1008.62 1008.98 1009.45 1009.95 1010.40 1010.73 1010.88 1010.85 1010.69 1010.47 1010.26 1010.15 1010.19 1010.39 1010.74 1011.17 1011.63 1012.05 1012.39 1012.62 1012.75 1012.81 1012.84 1012.89
1009.46 1010.30 1011.43 1012.65 1013.75 1014.51 1014.80 1014.54 1013.76 1012.58 1011.21 1009.84 1008.67 1007.83 1007.35 1007.21 1007.32 1007.56 1007.80 1007.94 1007.96 1007.87 1007.72 1007.62 1007.63 1007.80 1008.16 1008.65 1009.20 1009.73 1010.14 1010.38 1010.44 1010.35 1010.16 1009.96 1009.84 1009.85 1010.01 1010.33 1010.75 1011.21 1011.66 1012.05 1012.34 1012.54 1012.67 1012.76 1012.85
1009.59 1010.55 1011.78 1013.06 1014.16 1014.88 1015.07 1014.68 1013.73 1012.39 1010.85 1009.34 1008.06 1007.14 1006.62 1006.47 1006.59 1006.85 1007.10 1007.25 1007.26 1007.14 1006.95 1006.79 1006.75 1006.89 1007.23 1007.73 1008.33 1008.93 1009.45 1009.81 1009.97 1009.96 1009.84 1009.68 1009.55 1009.54 1009.67 1009.95 1010.35 1010.81 1011.28 1011.70 1012.04 1012.31 1012.49 1012.63 1012.76
1010.08 1011.12 1012.38 1013.64 1014.68 1015.28 1015.32 1014.75 1013.64 1012.14 1010.48 1008.87 1007.52 1006.56 1006.02 1005.87 1005.99 1006.25 1006.50 1006.63 1006.61 1006.43 1006.18 1005.95 1005.84 1005.93 1006.24 1006.74 1007.38 1008.06 1008.68 1009.15 1009.43 1009.53 1009.49 1009.38 1009.27 1009.24 1009.34 1009.59 1009.95 1010.40 1010.87 1011.32 1011.70 1012.01 1012.24 1012.41 1012.54
1010.83 1011.91 1013.13 1014.29 1015.17 1015.59 1015.44 1014.70 1013.45 1011.84 1010.11 1008.47 1007.12 1006.16 1005.64 1005.49 1005.62 1005.87 1006.09 1006.17 1006.08 1005.84 1005.50 1005.18 1004.99 1005.01 1005.27 1005.77 1006.43 1007.17 1007.87 1008.45 1008.85 1009.06 1009.10 1009.04 1008.96 1008.93 1009.00 1009.21 1009.54 1009.95 1010.41 1010.87 1011.28 1011.61 1011.86 1012.04 1012.17
1011.68 1012.73 1013.85 1014.84 1015.51 1015.72 1015.38 1014.49 1013.14 1011.50 1009.77 1008.19 1006.89 1006.00 1005.53 1005.41 1005.54 1005.76 1005.92 1005.94 1005.76 1005.42 1004.99 1004.58 1004.30 1004.25 1004.46 1004.93 1005.59 1006.36 1007.12 1007.78 1008.27 1008.56 1008.68 1008.68 1008.62 1008.58 1008.63 1008.79 1009.08 1009.45 1009.89 1010.33 1010.74 1011.08 1011.34 1011.52 1011.64
1012.46 1013.42 1014.37 1015.14 1015.58 1015.57 1015.06 1014.07 1012.70 1011.11 1009.50 1008.04 1006.89 1006.11 1005.72 1005.64 1005.77 1005.94 1006.04 1005.97 1005.70 1005.27 1004.75 1004.25 1003.90 1003.77 1003.92 1004.35 1004.98 1005.74 1006.52 1007.21 1007.75 1008.10 1008.27 1008.30 1008.25 1008.21 1008.22 1008.34 1008.57 1008.90 1009.30 1009.71 1010.10 1010.44 1010.69 1010.87 1010.97
1013.03 1013.86 1014.60 1015.13 1015.33 1015.12 1014.49 1013.47 1012.16 1010.71 1009.28 1008.04 1007.08 1006.47 1006.18 1006.15 1006.26 1006.39 1006.41 1006.25 1005.90 1005.39 1004.81 1004.25 1003.84 1003.66 1003.76 1004.12 1004.70 1005.42 1006.16 1006.84 1007.37 1007.73 1007.91 1007.94 1007.89 1007.83 1007.81 1007.88 1008.06 1008.34 1008.68 1009.06 1009.42 1009.74 1009.99 1010.16 1010.26
Thickness
5828 5825 5822 5809 5788 5771 5769 5783 5794 5795 5797 5804 5807 5801 5789 5782 5773 5763 5783 5790 5788 5786 5785 5785 5784 5783 5782 5782 5782 5782 5780 5778 5777 5776 5775 5774 5773 5772 5771 5770 5769 5768 5767 5766 5766 5765 5764 5763 5762
5830 5827 5816 5800 5775 5758 5769 5790 5793 5799 5804 5810 5808 5802 5792 5785 5789 5785 5786 5789 5789 5787 5786 5785 5784 5783 5782 5782 5782 5782 5780 5777 5777 5776 5774 5773 5772 5771 5770 5769 5769 5768 5767 5766 5765 5764 5763 5762 5761
5832 5828 5807 5789 5774 5766 5775 5794 5800 5808 5814 5812 5804 5802 5795 5787 5791 5789 5791 5792 5789 5787 5786 5785 5784 5784 5782 5782 5781 5780 5779 5778 5776 5775 5774 5773 5771 5770 5769 5769 5768 5767 5766 5765 5764 5763 5762 5761 5761
5830 5816 5804 5784 5776 5789 5796 5803 5810 5807 5810 5812 5805 5795 5797 5803 5800 5797 5795 5793 5789 5787 5786 5785 5784 5783 5782 5781 5780 5779 5779 5777 5776 5774 5773 5772 5771 5770 5769 5768 5767 5767 5765 5764 5764 5763 5762 5761 5760
5828 5807 5787 5777 5785 5800 5810 5815 5817 5808 5806 5806 5804 5790 5788 5802 5806 5800 5796 5793 5789 5787 5786 5786 5784 5783 5782 5781 5780 5779 5778 5777 5775 5774 5773 5772 5771 5770 5768 5767 5767 5766 5765 5764 5763 5763 5762 5761 5761
5814 5802 5777 5771 5787 5804 5814 5821 5819 5809 5805 5804 5801 5790 5787 5801 5801 5798 5796 5793 5791 5788 5787 5786 5784 5783 5782 5781 5780 5778 5777 5776 5775 5774 5773 5772 5770 5769 5768 5767 5767 5766 5765 5764 5763 5763 5762 5761 5761
5810 5794 5781 5784 5789 5799 5814 5824 5818 5809 5804 5806 5807 5789 5787 5796 5801 5800 5796 5793 5791 5789 5787 5785 5784 5783 5782 5781 5779 5778 5777 5776 5775 5774 5773 5772 5771 5770 5769 5767 5767 5766 5765 5764 5763 5763 5763 5762 5761
5824 5800 5787 5790 5792 5799 5821 5828 5825 5818 5811 5818 5814 5792 5785 5796 5803 5799 5795 5791 5789 5787 5786 5785 5784 5783 5782 5781 5779 5778 5777 5776 5776 5775 5774 5773 5772 5771 5769 5768 5767 5766 5765 5765 5764 5763 5763 5762 5761
5831 5796 5782 5794 5801 5808 5825 5824 5825 5831 5821 5818 5818 5810 5807 5807 5804 5796 5790 5787 5786 5786 5785 5785 5783 5782 5782 5780 5779 5778 5778 5777 5776 5775 5774 5773 5772 5771 5770 5769 5768 5767 5766 5765 5764 5764 5763 5762 5762
5820 5791 5798 5818 5823 5823 5829 5827 5826 5819 5811 5808 5808 5810 5811 5807 5801 5793 5788 5785 5784 5783 5785 5786 5784 5783 5782 5781 5779 5778 5778 5777 5776 5775 5774 5773 5773 5772 5771 5771 5769 5768 5767 5766 5765 5764 5764 5763 5763
5825 5810 5821 5830 5836 5837 5831 5830 5832 5817 5803 5807 5805 5806 5807 5803 5799 5795 5792 5790 5789 5788 5787 5787 5786 5785 5783 5782 5780 5779 5778 5777 5776 5775 5774 5774 5773 5772 5772 5771 5770 5769 5768 5766 5765 5764 5764 5764 5763
5830 5832 5837 5837 5843 5841 5835 5833 5827 5821 5817 5824 5821 5816 5809 5802 5799 5797 5794 5793 5792 5790 5790 5789 5789 5788 5786 5784 5782 5780 5779 5778 5777 5776 5776 5775 5774 5773 5772 5771 5770 5769 5768 5767 5766 5765 5765 5765 5764
5831 5833 5844 5846 5846 5845 5841 5833 5828 5823 5829 5828 5822 5816 5810 5805 5802 5801 5800 5797 5795 5792 5791 5791 5791 5789 5787 5785 5784 5782 5780 5779 5779 5778 5777 5776 5775 5774 5773 5772 5771 5770 5769 5768 5767 5766 5765 5766 5766
5839 5840 5843 5845 5845 5845 5836 5830 5827 5822 5829 5824 5819 5814 5812 5808 5805 5801 5799 5796 5795 5794 5794 5794 5793 5791 5790 5787 5786 5784 5782 5781 5780 5779 5779 5778 5777 5776 5774 5773 5772 5772 5771 5770 5769 5767 5767 5767 5767
5847 5834 5835 5841 5843 5842 5835 5816 5821 5827 5828 5820 5817 5815 5813 5811 5808 5805 5803 5801 5799 5797 5797 5796 5796 5794 5791 5789 5788 5786 5784 5783 5781 5781 5780 5779 5778 5777 5775 5774 5773 5773 5772 5771 5769 5768 5768 5767 5767
5835 5820 5810 5832 5842 5841 5825 5798 5820 5830 5825 5817 5816 5816 5813 5812 5811 5810 5808 5805 5803 5800 5797 5797 5799 5795 5793 5792 5790 5788 5786 5784 5783 5782 5781 5780 5778 5777 5776 5774 5774 5774 5773 5771 5769 5768 5766 5766 5765
5811 5799 5803 5822 5841 5838 5823 5805 5821 5830 5825 5818 5818 5816 5813 5810 5810 5811 5811 5808 5805 5802 5799 5797 5798 5796 5794 5793 5791 5789 5787 5785 5783 5782 5781 5780 5779 5778 5776 5775 5774 5774 5772 5771 5770 5768 5766 5763 5763
5795 5799 5806 5813 5833 5832 5818 5813 5823 5829 5825 5818 5817 5815 5812 5808 5809 5811 5811 5810 5807 5804 5801 5799 5798 5796 5795 5793 5790 5787 5786 5784 5783 5783 5782 5780 5779 5778 5776 5774 5773 5773 5771 5769 5768 5766 5765 5763 5762
5814 5807 5806 5821 5838 5826 5815 5813 5820 5826 5823 5818 5815 5813 5811 5811 5813 5814 5813 5811 5807 5803 5801 5799 5797 5796 5794 5790 5787 5784 5782 5783 5782 5783 5782 5781 5779 5778 5776 5774 5772 5771 5769 5768 5767 5765 5763 5761 5761
5817 5806 5809 5823 5837 5826 5813 5812 5820 5824 5822 5822 5819 5816 5814 5811 5811 5812 5811 5810 5807 5803 5801 5800 5798 5796 5795 5792 5790 5787 5785 5783 5783 5783 5781 5781 5779 5778 5775 5773 5771 5770 5768 5767 5765 5764 5760 5759 5760
5815 5809 5811 5815 5826 5825 5812 5798 5807 5818 5823 5823 5823 5821 5820 5817 5813 5811 5810 5808 5806 5803 5802 5801 5798 5797 5795 5794 5790 5787 5784 5782 5780 5779 5779 5780 5779 5777 5775 5772 5770 5769 5767 5765 5764 5763 5759 5755 5756
5808 5828 5828 5824 5806 5791 5802 5771 5794 5806 5809 5814 5817 5818 5820 5820 5816 5813 5811 5810 5808 5806 5805 5802 5799 5797 5796 5794 5789 5784 5779 5776 5777 5778 5778 5778 5777 5775 5773 5772 5770 5768 5766 5764 5763 5762 5760 5756 5752
5823 5837 5830 5824 5805 5789 5791 5773 5781 5800 5798 5807 5815 5819 5821 5821 5820 5817 5816 5815 5812 5809 5806 5802 5799 5797 5796 5793 5790 5785 5781 5779 5779 5778 5776 5775 5775 5774 5772 5771 5769 5767 5765 5764 5762 5761 5758 5755 5752
5840 5828 5817 5805 5788 5766 5778 5771 5770 5790 5803 5811 5817 5822 5823 5822 5822 5820 5819 5817 5813 5810 5807 5803 5799 5797 5795 5793 5789 5786 5781 5779 5776 5774 5772 5772 5771 5771 5771 5769 5767 5765 5763 5762 5760 5759 5757 5754 5752
5828 5795 5767 5762 5752 5755 5778 5772 5776 5807 5819 5820 5820 5822 5825 5823 5822 5820 5817 5814 5812 5809 5806 5803 5799 5795 5794 5791 5788 5786 5783 5780 5776 5774 5771 5769 5767 5767 5767 5767 5765 5763 5762 5760 5758 5756 5754 5752 5750
5816 5797 5763 5749 5744 5752 5771 5767 5790 5819 5826 5827 5827 5826 5824 5822 5822 5821 5819 5816 5813 5811 5807 5803 5799 5795 5793 5790 5788 5786 5783 5780 5777 5775 5772 5770 5768 5767 5767 5765 5763 5762 5760 5758 5755 5753 5751 5750 5748
5810 5798 5795 5768 5760 5748 5758 5776 5797 5815 5814 5816 5818 5818 5818 5818 5819 5820 5819 5816 5813 5810 5808 5805 5800 5796 5793 5790 5786 5784 5782 5780 5777 5775 5773 5770 5768 5767 5765 5763 5761 5759 5757 5754 5752 5749 5747 5747 5745
5821 5808 5783 5764 5745 5737 5750 5762 5770 5792 5798 5806 5809 5809 5811 5814 5814 5815 5816 5815 5813 5811 5809 5806 5801 5797 5793 5789 5786 5784 5780 5778 5776 5773 5770 5768 5767 5765 5762 5760 5758 5756 5753 5751 5748 5745 5744 5742 5741
5805 5797 5780 5763 5757 5739 5733 5753 5795 5796 5801 5803 5804 5806 5808 5809 5810 5810 5810 5811 5811 5809 5807 5803 5799 5795 5791 5788 5785 5783 5779 5776 5773 5769 5767 5764 5763 5761 5759 5757 5754 5751 5748 5746 5743 5741 5740 5738 5736
5810 5797 5780 5759 5753 5748 5739 5755 5804 5803 5805 5807 5805 5806 5807 5806 5808 5807 5806 5806 5805 5804 5802 5800 5798 5794 5790 5787 5783 5780 5777 5773 5769 5767 5764 5762 5759 5758 5755 5753 5751 5748 5746 5743 5741 5738 5736 5733 5731